Regional Weather Roundup
Issued by NWS Lake Charles, LA

Home | Current Version | Previous Version | Text Only | Print | Product List | Glossary On
Versions: 1 2 3 4 5 6 7 8 9 10 11 12 13 14 15 16 17 18 19 20 21 22 23 24 25 26 27 28 29 30 31 32 33 34 35 36 37 38 39 40 41 42 43 44 45 46 47 48 49 50
000
ASUS44 KLCH 260110
RWRLCH
RWRLCH
REGIONAL WEATHER ROUNDUP
NATIONAL WEATHER SERVICE LAKE CHARLES LA
800 PM CDT MON MAY 25 2015

Note: "fair" indicates few or no clouds below 12,000 feet with no
significant weather and/or obstructions to visibility.


ACROSS SOUTHEAST TEXAS

CITY           SKY/WX    TMP DP  RH WIND       PRES   REMARKS
BEAUMONT       CLOUDY    82  76  81 SE14      29.91R
BEAUMONT CITY  CLOUDY    80  76  87 SE9       29.92S
ORANGE         CLOUDY    81  75  82 SE10      29.93R
JASPER         CLOUDY    82  75  78 S6        29.96R
$$

ACROSS CENTRAL LOUISIANA

CITY           SKY/WX    TMP DP  RH WIND       PRES   REMARKS
LEESVILLE      NOT AVBL
FULLERTON      MOCLDY    83  72  69 VRB3      29.91S
ALEXANDRIA INT TSTM      75  72  90 E8        29.95R
ESLER FIELD    CLOUDY    76  72  87 SE7       29.97S
DERIDDER         N/A     82  74  77 S7        29.96S
OAKDALE        CLOUDY    79  74  86 CALM      29.95S
OPELOUSAS      CLOUDY    76  73  89 CALM      29.97R
$$

ACROSS SOUTHWEST AND SOUTH CENTRAL LOUISIANA

CITY           SKY/WX    TMP DP  RH WIND       PRES   REMARKS
SULPHUR        CLOUDY    82  76  80 SE12G18   29.95R
LAKE CHARLES   CLOUDY    82  75  79 S10       29.95R
CHENNAULT INT  NOT AVBL
CAMERON PHI    CLOUDY    82  77  83 S16G23    29.97R HAZE
DEQUINCY       MOCLDY    80  77  90 SE8       29.94S
JENNINGS       MOCLDY    81  75  83 S8        29.96R
LAFAYETTE      CLOUDY    82  75  79 S9        29.97R
NEW IBERIA     MOCLDY    81  77  88 SE10      29.97R
ABBEVILLE      CLOUDY    80  76  86 S9G18     29.97R
PATTERSON      MOCLDY    81  73  78 SE9       29.99R
SALT POINT       N/A     81  77  88 VRB6      29.96R
$$

SELECTED SITES ACROSS THE REGION

CITY           SKY/WX    TMP DP  RH WIND       PRES   REMARKS
HOUSTON BUSH   CLOUDY    82  74  76 S10G21    29.88R
HOUSTON HOBBY  CLOUDY    82  76  81 S10       29.88R
GALVESTON      CLOUDY    82  79  90 S17       29.89R
COLLEGE STAT   LGT RAIN  66  65  96 E9        29.88R
CONROE         TSTM      65  63  93 N26G44    29.88R VSB 1
HUNTSVILLE     TSTM      65  63  93 SW10G20   29.94F FOG
LUFKIN         TSTM      67  63  87 VRB6      29.97R VSB 1
SHREVEPORT     CLOUDY    80  70  71 CALM      29.92R THUNDER
MONROE         CLOUDY    73  70  90 SE5       29.97R
NATCHEZ MS     PTCLDY    73  70  88 S9        29.99R
BATON ROUGE    MOCLDY    74  68  81 E9        30.00R
N.O. INTL ARPT LGT RAIN  73  68  84 E9        30.01F
SLIDELL        CLOUDY    73  70  90 SE6       30.04R
$$

MARINE REPORTS

STATION/POSITION TIME  TEMP    WIND        PRES    VSBY  WAVE
                       AIR SEA DIR/SP/G                  HT/PER
                 (UTC) (F)     (DEG/KT/KT) (MB)    (MI)  (FT/S)
BUOY 30 S HIGH I 0050   81 81  150/ 16/ 19 1011.3R         4/ 5
SEA RIM ST PARK  0100   81     150/ 14/ 16 1013.6R
PORT ARTHUR      0000      77  140/ 10/ 18 1012.3R
SABINE PASS N    0000   81 80  160/ 17/ 22 1012.2R
TEXAS POINT      NOT AVBL
CALCASIEU PASS   0000   81 81  170/ 17/ 21   N/A
LK CHARLES BEACH 0000   83 78              1013.5R
MARSH ISLAND     0000   82     160/ 20/ 23   N/A           1
FRESH WATER LOCK 0000   82 82  140/ 14/ 20 1013.5R
AMERADA PASS     0000   82 80  140/  9/ 17 1014.4S
$$



USA.gov is the U.S. government's official web portal to all federal, state and local government web resources and services.